Orbital elements:
2008 CP116                                               Earth MOID = 0.0721 AU
Epoch 2007 Oct. 27.0 TT = JDT 2454400.5                 MPC
M 334.78084              (2000.0)            P               Q
n   0.25452626     Peri.  174.52689     -0.65815684     -0.75286100
a   2.4659314      Node   316.63241     +0.69045228     -0.60067189
e   0.5716256      Incl.    0.45614     +0.30017530     -0.26906057
P   3.87           H   23.0           G   0.15           U   5
Residuals in seconds of arc
071215 G96  0.0   0.4-    080212 300  0.7-  0.5-    080212 046  0.5+  0.2-
071215 G96  0.0   0.2-    080212 300  1.3-  0.1-    080212 046  0.4-  0.4-
071215 G96  0.1+  0.1+    080212 104 (0.7-  3.1-)   080212 J71  0.2-  0.5+
071215 G96  0.0   0.0     080212 104  0.7-  0.5-    080212 J71  0.6+  0.2+
071231 G96  0.1-  0.1-    080212 104 (2.0+  1.3-)   080212 J71  0.8+  0.2-
071231 G96  0.1-  0.1+    080212 235  0.1+  0.3-    080212 J71  0.5+  0.0
071231 G96  0.1-  0.0     080212 235  0.0   0.4-    080212 595  0.5+  0.6+
071231 G96  0.3+  0.2+    080212 J95  0.0   0.1-    080212 595  0.4+  0.3-
080211 704  0.3+  0.3+    080212 J95  0.4+  0.3-    080212 595  0.0   0.2-
080211 704  0.2+  0.2+    080212 J95  0.0   0.1-    080213 J66  0.2-  0.3-
080211 704  0.1-  0.1+    080212 A24  0.1+  0.6+    080213 J66  0.1-  0.2-
080211 704  0.0   0.6+    080212 A24  0.2-  0.3+    080213 J66  0.2+  0.0
080211 704  0.6+  0.2+    080212 A24  0.2-  0.4+    080213 J66  0.0   0.1-
080212 673  0.5-  0.4+    080212 246  0.2+  0.2+    080213 I77  0.3-  0.3-
080212 673  0.5-  0.5+    080212 246  0.3-  0.2+    080213 I77  0.1+  0.4-
080212 673  0.2+  0.0     080212 246  0.1-  0.3+    080213 I77  0.1+  0.3-
080212 673  0.4+  0.1+    080212 246  0.1-  0.3+    080213 204  0.1-  0.1-
080212 704  0.1+  0.4+    080212 A24  0.1-  0.2+    080213 204  0.0   0.1-
080212 704  0.1-  0.1+    080212 246  0.6-  0.0     080213 204  0.1-  0.0
080212 854  0.2-  0.2+    080212 246  0.4-  0.3+    080213 G96  0.2-  0.2-
080212 854  0.4+  0.8+    080212 246  0.2+  0.1+    080213 G96  0.3+  0.4-
080212 854  0.1-  0.4+    080212 A24  0.1-  0.1+    080213 G96  0.3+  0.2-
080212 704  0.3+  0.3+    080212 046  0.6-  0.4-    080213 G96  0.2+  0.3-
080212 704  0.4+  0.6+    080212 046  0.6+  0.5-    080213 673  0.2-  0.2+
080212 704  0.6+  0.4+    080212 A24  0.1+  0.1+    080213 673  0.1-  0.3+
080212 300  0.2-  0.1-    080212 046  0.6-  1.0-    080213 673  0.5-  0.3+
080212 300  0.6-  0.7+    080212 046  0.6-  0.7-    080213 673  0.1-  0.2+
080212 300  0.3+  0.1-    080212 046  0.4-  0.5-

Ephemeris:
2008 CP116               a,e,i = 2.47, 0.57, 0                   q = 1.0563
Date    TT    R. A. (2000) Decl.     Delta      r     Elong.  Phase     V
2008 02 14    08 51.56   +16 52.4    0.0801   1.065   166.1    12.9    18.4
2008 02 24    10 17.70   +08 57.5    0.0993   1.089   177.8     2.0    18.4
2008 03 05    11 07.01   +03 41.8    0.133    1.125   177.5     2.2    19.1
2008 03 15    11 33.83   +00 49.2    0.178    1.173   177.9     1.8    19.8
2008 03 25    11 49.60   -00 46.9    0.233    1.229   173.1     5.6    20.7
2008 04 04    12 00.25   -01 47.0    0.299    1.293   166.2    10.6    21.6

Gareth V. Williams           (C) Copyright 2008 MPC           M.P.E.C. 2008-C87

Read MPEC 2008-C86 Read MPEC 2008-C88


Our Web policy. Index to the CBAT/MPC/ICQ pages.

